TimePDT,TemperatureF,Dew PointF,Humidity,Sea Level PressureIn,VisibilityMPH,Wind Direction,Wind SpeedMPH,Gust SpeedMPH,PrecipitationIn,Events,Conditions,WindDirDegrees,DateUTC
12:56 AM,59.0,52.0,78,29.96,10.0,SSE,6.9,-,N/A,,Clear,160,2012-10-04 07:56:00
1:56 AM,55.9,52.0,87,29.98,10.0,South,4.6,-,N/A,,Clear,180,2012-10-04 08:56:00
2:56 AM,55.9,52.0,87,29.99,10.0,South,6.9,-,N/A,,Clear,190,2012-10-04 09:56:00
3:56 AM,55.0,52.0,89,29.99,10.0,South,5.8,-,N/A,,Clear,170,2012-10-04 10:56:00
4:56 AM,54.0,51.1,90,30.01,10.0,South,3.5,-,N/A,,Clear,190,2012-10-04 11:56:00
5:37 AM,53.6,51.8,94,30.04,10.0,Calm,Calm,-,N/A,,Scattered Clouds,0,2012-10-04 12:37:00
5:56 AM,54.0,51.1,90,30.02,10.0,Calm,Calm,-,N/A,,Scattered Clouds,0,2012-10-04 12:56:00
6:12 AM,53.6,50.0,88,30.05,10.0,Calm,Calm,-,N/A,,Mostly Cloudy,0,2012-10-04 13:12:00
6:56 AM,52.0,48.9,89,30.04,10.0,Calm,Calm,-,N/A,,Overcast,0,2012-10-04 13:56:00
7:56 AM,55.9,51.1,84,30.06,10.0,Calm,Calm,-,N/A,,Overcast,0,2012-10-04 14:56:00
8:05 AM,55.4,51.8,88,30.07,10.0,Calm,Calm,-,N/A,,Overcast,0,2012-10-04 15:05:00
8:56 AM,57.0,51.1,81,30.07,10.0,Calm,Calm,-,N/A,,Overcast,0,2012-10-04 15:56:00
9:56 AM,59.0,52.0,78,30.08,10.0,Variable,4.6,-,N/A,,Overcast,0,2012-10-04 16:56:00
10:29 AM,60.8,51.8,72,30.10,10.0,SE,6.9,-,N/A,,Partly Cloudy,130,2012-10-04 17:29:00
10:56 AM,62.1,52.0,70,30.09,10.0,Variable,5.8,-,N/A,,Clear,0,2012-10-04 17:56:00
11:56 AM,66.0,52.0,60,30.09,10.0,SE,8.1,-,N/A,,Clear,130,2012-10-04 18:56:00
12:56 PM,71.1,52.0,51,30.07,10.0,SE,6.9,-,N/A,,Clear,130,2012-10-04 19:56:00
1:56 PM,75.9,52.0,43,30.04,10.0,Variable,5.8,-,N/A,,Clear,0,2012-10-04 20:56:00
2:56 PM,79.0,52.0,39,30.02,10.0,SE,8.1,-,N/A,,Clear,140,2012-10-04 21:56:00
3:56 PM,81.0,51.1,35,30.01,10.0,SSE,8.1,-,N/A,,Clear,150,2012-10-04 22:56:00
4:56 PM,80.1,53.1,39,30.01,10.0,SSE,6.9,-,N/A,,Clear,150,2012-10-04 23:56:00
5:56 PM,77.0,54.0,45,30.02,10.0,SSE,3.5,-,N/A,,Clear,160,2012-10-05 00:56:00
7:56 PM,66.9,52.0,59,30.06,10.0,Variable,3.5,-,N/A,,Clear,0,2012-10-05 02:56:00
8:56 PM,64.9,52.0,63,30.07,10.0,Calm,Calm,-,N/A,,Clear,0,2012-10-05 03:56:00
9:56 PM,62.1,52.0,70,30.09,10.0,SSE,3.5,-,N/A,,Clear,160,2012-10-05 04:56:00
10:56 PM,60.1,51.1,72,30.10,10.0,SSE,4.6,-,N/A,,Clear,160,2012-10-05 05:56:00
11:56 PM,57.9,50.0,75,30.11,10.0,SSW,3.5,-,N/A,,Clear,210,2012-10-05 06:56:00